NIMBUS 2 DEB, 59974

Orbit data source: Space-Track

NIMBUS 2 DEB, 59974 is space debris in SSO originally from a launch on Sun, 15 May 1966 UTC launched from the Air Force Western Test Range (AFWTR). Debris objects in space refer to the collection of defunct objects orbiting the Earth. Examples of debris include non-operational satellites, rocket bodies, and fragments generated from explosions, collisions, or faulty payload assembly.

Loading next visibility...
Identifier
59974, 1966-040CD
Orbit
SSO
Country
Flag of USUS
Related business
Manufacturer
Unknown
Mission
Spacecraft
Bus & Motor
Unknown
Mass
Unknown
Launch date (UTC)
1966-05-15 (60 years ago)
Launch vehicle
Unknown
Launch site
Air Force Western Test Range (AFWTR)
Object type
Payload
Rocket body
Debris
Shape & HBR
Unknown shape, 0.1 m
Radar Cross Section
Small (<0.1 m²)

Expand to show TLE details & history
Last TLE update: 6 hours ago

TLE from 6 hours ago
0 NIMBUS 2 DEB
1 59974U 66040CD  26036.15899918  .00002168  00000-0  38244-2 0  9997
2 59974 100.1231 197.0188 0044184 146.6480 213.7447 13.43567376440054
Epoch: 2026-02-05T03:48Z
TLE epoch observation values (Epoch: 2026-02-05T03:48:57.529Z)
Latitude
0.00006°
Longitude
4.46385°
Altitude
1,126.292 km
Speed
7.276 km/s
True Right ascension
13h 08m 04s
True Declination
0° 00' 00"
Sunlit
Object was in daylight at epoch
Visualization orbit readout
Latitude
Unknown
Longitude
Unknown
Altitude
Unknown
Speed
Unknown
Apparent Right ascension
Unknown
Apparent Declination
Unknown
Sunlit
N/A
Visualization observer readout
Local Sidereal Time
11:35:21
Azimuth
Unknown
Elevation
Unknown
Doppler factor
Unknown
Orbital elements
Apogee altitude
1,126.364 km
Perigee altitude
1,060.34 km
Semi-major axis
7,471.489 km
Eccentricity
0.00442
Inclination
100.1231°
RAAN
197.0188°
Arg. of periapsis
146.648°
True anomaly
213.46473°
Mean anomaly
213.7447°
Eccentric anomaly
213.60459°
Mean motion
3.36072 °/min
Orbital period
107.12 mins
BSTAR
0.0038244
Loading maneuver chart data...
Computing Atmospheric mass density...
Loading historical data...
Loading historical data...
Loading historical data...
Loading historical data...
Loading historical data...
Loading historical data...
Loading historical data...

Documentation

Showing up to 5 results
|